| time (UTC) | temp C | wind direction | speed KPH | gust KPH | rain 1hr cm | rain 24hr cm | rain mn cm | humidity % | barometer mb |
| 20260503195957 | 16 | 79 | 11.3 | 22.5 | 0.00 | 0.15 | 0.00 | 54 | 1017.2 |
| 20260503194456 | 16 | 86 | 8.0 | 14.5 | 0.00 | 0.15 | 0.00 | 54 | 1017.5 |
| 20260503192956 | 16 | 338 | 12.9 | 24.1 | 0.00 | 0.15 | 0.00 | 45 | 1017.6 |
| 20260503185957 | 16 | 288 | 12.9 | 25.7 | 0.00 | 0.18 | 0.00 | 43 | 1017.8 |
| 20260503184456 | 16 | 300 | 12.9 | 22.5 | 0.00 | 0.18 | 0.00 | 45 | 1018.0 |
| 20260503182956 | 16 | 299 | 14.5 | 27.4 | 0.00 | 0.18 | 0.00 | 47 | 1018.2 |
| 20260503175957 | 16 | 313 | 11.3 | 27.4 | 0.00 | 0.20 | 0.00 | 43 | 1018.1 |
| 20260503174456 | 15 | 294 | 14.5 | 24.1 | 0.00 | 0.20 | 0.00 | 45 | 1018.1 |
| 20260503172956 | 15 | 322 | 11.3 | 24.1 | 0.00 | 0.20 | 0.00 | 47 | 1018.3 |
| 20260503171456 | 15 | 318 | 11.3 | 24.1 | 0.00 | 0.20 | 0.00 | 45 | 1018.2 |
| 20260503081456 | 11 | 323 | 8.0 | 20.9 | 0.00 | 1.04 | 0.00 | 73 | 1013.4 |
| 20260503071456 | 11 | 301 | 8.0 | 20.9 | 0.00 | 1.04 | 0.00 | 75 | 1012.6 |
| 20260503054456 | 12 | 296 | 6.4 | 17.7 | 0.00 | 1.04 | 0.00 | 74 | 1012.0 |
| 20260503052956 | 12 | 342 | 4.8 | 16.1 | 0.00 | 1.04 | 0.00 | 71 | 1011.6 |
| 20260503051456 | 12 | 330 | 11.3 | 29.0 | 0.00 | 1.04 | 0.00 | 73 | 1011.9 |
| 20260503045956 | 12 | 335 | 12.9 | 25.7 | 0.00 | 1.04 | 0.00 | 72 | 1012.0 |
| 20260503044456 | 12 | 331 | 12.9 | 22.5 | 0.00 | 1.04 | 0.00 | 73 | 1012.2 |
| 20260503041456 | 12 | 346 | 12.9 | 25.7 | 0.00 | 1.04 | 0.00 | 73 | 1012.0 |
| 20260503035956 | 12 | 320 | 14.5 | 25.7 | 0.00 | 1.04 | 1.04 | 71 | 1012.0 |
| 20260503032956 | 12 | 17 | 17.7 | 29.0 | 0.00 | 1.04 | 1.04 | 71 | 1011.9 |
| 20260503031456 | 12 | 355 | 17.7 | 33.8 | 0.00 | 1.04 | 1.04 | 71 | 1012.0 |
| 20260503025956 | 12 | 318 | 16.1 | 29.0 | 0.00 | 1.07 | 1.04 | 74 | 1012.1 |
| 20260503024456 | 12 | 360 | 14.5 | 24.1 | 0.00 | 1.07 | 1.04 | 76 | 1012.1 |
| 20260503022956 | 12 | 332 | 14.5 | 25.7 | 0.00 | 1.07 | 1.04 | 77 | 1012.1 |
| 20260503021456 | 12 | 355 | 17.7 | 32.2 | 0.00 | 1.07 | 1.04 | 80 | 1011.9 |
| 20260503015955 | 12 | 338 | 17.7 | 29.0 | 0.00 | 1.07 | 1.04 | 81 | 1011.9 |
| 20260503014456 | 12 | 345 | 14.5 | 27.4 | 0.00 | 1.07 | 1.04 | 83 | 1011.8 |
| 20260503012956 | 11 | 337 | 12.9 | 22.5 | 0.00 | 1.07 | 1.04 | 84 | 1012.2 |
| 20260503011455 | 11 | 24 | 14.5 | 25.7 | 0.03 | 1.07 | 1.04 | 84 | 1012.1 |
| 20260503005956 | 11 | 5 | 12.9 | 25.7 | 0.03 | 1.07 | 1.04 | 85 | 1011.6 |
| 20260503004456 | 11 | 355 | 12.9 | 25.7 | 0.03 | 1.07 | 1.04 | 84 | 1011.8 |
| 20260503001456 | 11 | 348 | 9.7 | 22.5 | 0.00 | 1.04 | 1.02 | 84 | 1011.7 |
| 20260502235956 | 11 | 5 | 14.5 | 24.1 | 0.00 | 1.04 | 1.02 | 84 | 1011.2 |
| 20260502234456 | 11 | 338 | 16.1 | 25.7 | 0.00 | 1.04 | 1.02 | 84 | 1011.0 |
| 20260502231455 | 11 | 360 | 19.3 | 30.6 | 0.03 | 1.04 | 1.02 | 85 | 1010.4 |
| 20260502222956 | 11 | 344 | 20.9 | 33.8 | 0.05 | 1.04 | 1.02 | 88 | 1010.7 |
| 20260502214456 | 11 | 5 | 20.9 | 32.2 | 0.10 | 1.02 | 0.99 | 88 | 1010.7 |
| 20260502212956 | 11 | 80 | 16.1 | 32.2 | 0.08 | 0.99 | 0.97 | 88 | 1010.7 |
| 20260502211455 | 11 | 47 | 16.1 | 27.4 | 0.05 | 0.97 | 0.94 | 87 | 1010.7 |
| 20260502205956 | 11 | 331 | 16.1 | 29.0 | 0.03 | 0.94 | 0.91 | 86 | 1010.6 |
| 20260502204455 | 11 | 355 | 19.3 | 30.6 | 0.00 | 0.91 | 0.89 | 85 | 1010.7 |
| 20260502201455 | 11 | 30 | 20.9 | 30.6 | 0.00 | 0.91 | 0.89 | 87 | 1010.3 |